ANA991 RJTT-RJBB

Flight info

Callsign ANA991
Flight time 1h 0m
Altitude 28000
Route LAXAS Y56 TOHME Y54 KOHWA Y544 DUBKA
Aircraft B738/M-SDE2FGILORVWXY/L

Departure

Time 2026-02-22 06:38
Airport Tokyo Haneda International Airport (RJTT)

Arrival

Time 2026-02-22 07:38
Airport Kansai International Airport (RJBB)
Time Latitude Longitude Altitude Speed Heading
2026-02-22 06:03 35.55813 139.78445 24 ft 0 kts 240°
2026-02-22 06:28 35.55814 139.78447 21 ft 1 kts 240°
2026-02-22 06:28 35.55823 139.78465 21 ft 3 kts 239°
2026-02-22 06:28 35.55833 139.78486 24 ft 3 kts 239°
2026-02-22 06:29 35.55843 139.78508 24 ft 3 kts 243°
2026-02-22 06:29 35.55852 139.78530 23 ft 3 kts 256°
2026-02-22 06:29 35.55853 139.78551 21 ft 3 kts 298°
2026-02-22 06:29 35.55847 139.78561 22 ft 2 kts 330°
2026-02-22 06:30 35.55830 139.78573 22 ft 3 kts 330°
2026-02-22 06:30 35.55824 139.78578 22 ft 1 kts 330°
2026-02-22 06:33 35.55825 139.78577 22 ft 1 kts 330°
2026-02-22 06:33 35.55844 139.78563 21 ft 6 kts 330°
2026-02-22 06:33 35.55894 139.78528 22 ft 11 kts 330°
2026-02-22 06:34 35.55974 139.78471 22 ft 15 kts 330°
2026-02-22 06:34 35.56071 139.78402 23 ft 16 kts 330°
2026-02-22 06:34 35.56166 139.78334 24 ft 15 kts 330°
2026-02-22 06:34 35.56247 139.78271 25 ft 14 kts 311°
2026-02-22 06:35 35.56238 139.78165 24 ft 13 kts 239°
2026-02-22 06:35 35.56192 139.78070 27 ft 13 kts 240°
2026-02-22 06:35 35.56148 139.77977 28 ft 13 kts 239°
2026-02-22 06:35 35.56102 139.77879 28 ft 14 kts 240°
2026-02-22 06:36 35.56047 139.77764 26 ft 17 kts 240°
2026-02-22 06:36 35.55984 139.77631 23 ft 19 kts 239°
2026-02-22 06:36 35.55923 139.77501 21 ft 16 kts 239°
2026-02-22 06:36 35.55873 139.77396 22 ft 11 kts 240°
2026-02-22 06:37 35.55828 139.77327 21 ft 11 kts 216°
2026-02-22 06:37 35.55765 139.77273 20 ft 12 kts 216°
2026-02-22 06:37 35.55694 139.77212 24 ft 13 kts 215°
2026-02-22 06:37 35.55616 139.77179 28 ft 13 kts 161°
2026-02-22 06:38 35.55484 139.77272 23 ft 46 kts 150°
2026-02-22 06:38 35.54994 139.77620 21 ft 114 kts 150°
2026-02-22 06:38 35.54164 139.78215 154 ft 154 kts 154°
2026-02-22 06:38 35.53244 139.78864 931 ft 152 kts 154°
2026-02-22 06:39 35.52328 139.79500 1756 ft 150 kts 156°
2026-02-22 06:39 35.51420 139.80142 2551 ft 151 kts 159°
2026-02-22 06:39 35.50496 139.80794 3220 ft 160 kts 159°
2026-02-22 06:39 35.49445 139.81530 3576 ft 190 kts 158°
2026-02-22 06:40 35.48218 139.82393 3787 ft 217 kts 158°
2026-02-22 06:40 35.46848 139.83363 4133 ft 236 kts 157°
2026-02-22 06:40 35.45343 139.84428 4506 ft 258 kts 156°
2026-02-22 06:40 35.43669 139.85169 5197 ft 256 kts 182°
2026-02-22 06:41 35.41953 139.84762 6001 ft 251 kts 208°
2026-02-22 06:41 35.40482 139.83621 6796 ft 253 kts 220°
2026-02-22 06:41 35.39080 139.82258 7475 ft 260 kts 221°
2026-02-22 06:41 35.37698 139.80877 8328 ft 260 kts 221°
2026-02-22 06:42 35.36286 139.79482 9178 ft 262 kts 221°
2026-02-22 06:42 35.34845 139.78081 9920 ft 268 kts 221°
2026-02-22 06:42 35.33352 139.76639 10389 ft 284 kts 221°
2026-02-22 06:42 35.31734 139.75080 10567 ft 308 kts 220°
2026-02-22 06:43 35.30007 139.73374 10724 ft 329 kts 222°
2026-02-22 06:43 35.28224 139.71515 11166 ft 341 kts 223°
2026-02-22 06:43 35.26434 139.69599 11835 ft 344 kts 226°
2026-02-22 06:43 35.24972 139.67292 12581 ft 344 kts 243°
2026-02-22 06:44 35.24101 139.64569 13379 ft 345 kts 255°
2026-02-22 06:44 35.23606 139.61721 14091 ft 349 kts 258°
2026-02-22 06:44 35.23151 139.58786 14760 ft 353 kts 258°
2026-02-22 06:44 35.22701 139.55819 15452 ft 357 kts 258°
2026-02-22 06:45 35.22247 139.52827 16158 ft 359 kts 258°
2026-02-22 06:45 35.21783 139.49815 16856 ft 362 kts 258°
2026-02-22 06:45 35.21309 139.46769 17518 ft 366 kts 258°
2026-02-22 06:45 35.20825 139.43693 18169 ft 370 kts 258°
2026-02-22 06:46 35.20333 139.40587 18776 ft 374 kts 258°
2026-02-22 06:46 35.19836 139.37464 19387 ft 376 kts 258°
2026-02-22 06:46 35.19334 139.34321 19981 ft 378 kts 258°
2026-02-22 06:47 35.18320 139.28003 21101 ft 384 kts 258°
2026-02-22 06:47 35.17802 139.24782 21652 ft 387 kts 258°
2026-02-22 06:47 35.17279 139.21540 22185 ft 390 kts 258°
2026-02-22 06:47 35.16753 139.18282 22714 ft 393 kts 258°
2026-02-22 06:48 35.16221 139.14996 23233 ft 396 kts 258°
2026-02-22 06:48 35.15685 139.11686 23727 ft 399 kts 258°
2026-02-22 06:48 35.15144 139.08353 24139 ft 401 kts 258°
2026-02-22 06:48 35.14607 139.05051 24533 ft 404 kts 258°
2026-02-22 06:49 35.14057 139.01681 24949 ft 405 kts 258°
2026-02-22 06:49 35.13524 138.98412 25366 ft 407 kts 258°
2026-02-22 06:49 35.12969 138.95017 25794 ft 408 kts 258°
2026-02-22 06:49 35.12410 138.91606 26225 ft 410 kts 258°
2026-02-22 06:50 35.11851 138.88199 26799 ft 407 kts 258°
2026-02-22 06:50 35.11297 138.84832 27476 ft 402 kts 259°
2026-02-22 06:50 35.10747 138.81498 28029 ft 401 kts 259°
2026-02-22 06:51 35.09650 138.74863 28112 ft 401 kts 259°
2026-02-22 06:51 35.08544 138.68193 28128 ft 401 kts 259°
2026-02-22 06:52 35.07433 138.61516 28117 ft 402 kts 259°
2026-02-22 06:52 35.06317 138.54830 28121 ft 402 kts 259°
2026-02-22 06:53 35.05197 138.48145 28124 ft 403 kts 259°
2026-02-22 06:53 35.04071 138.41443 28111 ft 403 kts 259°
2026-02-22 06:54 35.02949 138.34796 28102 ft 402 kts 259°
2026-02-22 06:54 35.01819 138.28126 28131 ft 401 kts 259°
2026-02-22 06:55 35.00688 138.21466 28090 ft 401 kts 259°
2026-02-22 06:55 34.99553 138.14829 28120 ft 400 kts 259°
2026-02-22 06:56 34.98422 138.08188 28129 ft 400 kts 259°
2026-02-22 06:56 34.97285 138.01592 28095 ft 400 kts 257°
2026-02-22 06:57 34.95493 137.95328 28121 ft 401 kts 250°
2026-02-22 06:57 34.93394 137.89024 28112 ft 402 kts 249°
2026-02-22 06:58 34.91305 137.82708 28120 ft 401 kts 250°
2026-02-22 06:58 34.89265 137.76441 28115 ft 400 kts 250°
2026-02-22 06:59 34.87226 137.70141 28091 ft 399 kts 250°
2026-02-22 06:59 34.85192 137.63865 28096 ft 398 kts 250°
2026-02-22 07:00 34.83164 137.57605 28123 ft 397 kts 250°
2026-02-22 07:00 34.81131 137.51359 28103 ft 396 kts 249°
2026-02-22 07:01 34.79111 137.45173 28094 ft 396 kts 249°
2026-02-22 07:01 34.77073 137.38940 28099 ft 397 kts 249°
2026-02-22 07:02 34.75030 137.32701 28084 ft 397 kts 249°
2026-02-22 07:02 34.72988 137.26478 28091 ft 396 kts 249°
2026-02-22 07:03 34.70945 137.20265 28084 ft 396 kts 249°
2026-02-22 07:03 34.68915 137.14104 28079 ft 395 kts 249°
2026-02-22 07:04 34.66869 137.07907 28075 ft 395 kts 249°
2026-02-22 07:04 34.64820 137.01713 28073 ft 395 kts 249°
2026-02-22 07:05 34.62799 136.95615 28063 ft 396 kts 249°
2026-02-22 07:05 34.60740 136.89414 28080 ft 397 kts 249°
2026-02-22 07:06 34.58686 136.83242 28071 ft 397 kts 249°
2026-02-22 07:06 34.56610 136.77016 28055 ft 398 kts 249°
2026-02-22 07:07 34.54541 136.70827 28016 ft 389 kts 249°
2026-02-22 07:07 34.53531 136.67812 27637 ft 380 kts 249°
2026-02-22 07:07 34.52543 136.64863 27162 ft 375 kts 249°
2026-02-22 07:07 34.51567 136.61954 26680 ft 370 kts 249°
2026-02-22 07:08 34.50603 136.59082 26187 ft 366 kts 249°
2026-02-22 07:08 34.49660 136.56272 25700 ft 363 kts 249°
2026-02-22 07:08 34.48712 136.53450 25241 ft 360 kts 249°
2026-02-22 07:08 34.47772 136.50655 24750 ft 357 kts 249°
2026-02-22 07:09 34.46836 136.47876 24270 ft 355 kts 248°
2026-02-22 07:09 34.45904 136.45108 23768 ft 354 kts 248°
2026-02-22 07:09 34.44975 136.42355 23226 ft 352 kts 249°
2026-02-22 07:09 34.44052 136.39619 22701 ft 349 kts 248°
2026-02-22 07:10 34.43138 136.36914 22225 ft 345 kts 248°
2026-02-22 07:10 34.42239 136.34242 21755 ft 341 kts 248°
2026-02-22 07:10 34.41355 136.31636 21294 ft 336 kts 248°
2026-02-22 07:10 34.40476 136.29037 20891 ft 330 kts 248°
2026-02-22 07:11 34.39604 136.26470 20392 ft 330 kts 248°
2026-02-22 07:11 34.38738 136.23913 19957 ft 327 kts 248°
2026-02-22 07:11 34.37874 136.21371 19487 ft 326 kts 248°
2026-02-22 07:11 34.37017 136.18842 19056 ft 323 kts 248°
2026-02-22 07:12 34.36168 136.16332 18575 ft 320 kts 248°
2026-02-22 07:12 34.35319 136.13855 18172 ft 318 kts 249°
2026-02-22 07:12 34.34682 136.11322 18080 ft 313 kts 257°
2026-02-22 07:12 34.34222 136.08737 18096 ft 312 kts 258°
2026-02-22 07:13 34.33786 136.06189 18032 ft 305 kts 258°
2026-02-22 07:13 34.33367 136.03765 18026 ft 293 kts 257°
2026-02-22 07:13 34.32951 136.01398 17897 ft 284 kts 258°
2026-02-22 07:13 34.32556 135.99159 17563 ft 281 kts 258°
2026-02-22 07:14 34.32142 135.96846 17071 ft 282 kts 259°
2026-02-22 07:14 34.31724 135.94498 16180 ft 293 kts 259°
2026-02-22 07:14 34.31285 135.92041 15714 ft 296 kts 258°
2026-02-22 07:14 34.30841 135.89590 15433 ft 306 kts 258°
2026-02-22 07:15 34.30374 135.87017 15146 ft 316 kts 258°
2026-02-22 07:15 34.29899 135.84424 14851 ft 316 kts 258°
2026-02-22 07:15 34.29435 135.81870 14544 ft 315 kts 258°
2026-02-22 07:15 34.28962 135.79294 14292 ft 312 kts 258°
2026-02-22 07:16 34.28491 135.76742 14022 ft 310 kts 258°
2026-02-22 07:16 34.28028 135.74202 13729 ft 309 kts 258°
2026-02-22 07:16 34.27567 135.71673 13415 ft 308 kts 258°
2026-02-22 07:16 34.27108 135.69153 13128 ft 306 kts 258°
2026-02-22 07:17 34.26648 135.66646 12804 ft 305 kts 257°
2026-02-22 07:17 34.26188 135.64144 12545 ft 304 kts 257°
2026-02-22 07:17 34.25733 135.61686 12269 ft 303 kts 257°
2026-02-22 07:17 34.25277 135.59205 12015 ft 302 kts 257°
2026-02-22 07:18 34.24825 135.56735 11732 ft 301 kts 256°
2026-02-22 07:18 34.24371 135.54268 11468 ft 300 kts 256°
2026-02-22 07:18 34.23916 135.51813 11207 ft 297 kts 256°
2026-02-22 07:18 34.23471 135.49403 10927 ft 291 kts 256°
2026-02-22 07:19 34.23037 135.47046 10649 ft 284 kts 256°
2026-02-22 07:19 34.22607 135.44745 10409 ft 278 kts 256°
2026-02-22 07:19 34.22188 135.42480 10151 ft 276 kts 256°
2026-02-22 07:19 34.21764 135.40196 10062 ft 281 kts 256°
2026-02-22 07:20 34.21340 135.37919 10010 ft 281 kts 256°
2026-02-22 07:20 34.20917 135.35637 10006 ft 278 kts 256°
2026-02-22 07:20 34.20493 135.33352 10003 ft 280 kts 256°
2026-02-22 07:20 34.20065 135.31054 9999 ft 280 kts 256°
2026-02-22 07:21 34.19639 135.28762 10001 ft 279 kts 256°
2026-02-22 07:21 34.19214 135.26474 10004 ft 279 kts 256°
2026-02-22 07:21 34.18788 135.24181 10002 ft 280 kts 255°
2026-02-22 07:21 34.18361 135.21887 9995 ft 280 kts 255°
2026-02-22 07:22 34.17935 135.19604 10005 ft 279 kts 256°
2026-02-22 07:22 34.17507 135.17318 10004 ft 279 kts 256°
2026-02-22 07:22 34.17084 135.15063 10000 ft 279 kts 255°
2026-02-22 07:22 34.16361 135.12915 10006 ft 278 kts 236°
2026-02-22 07:23 34.15119 135.11130 10010 ft 278 kts 232°
2026-02-22 07:23 34.14279 135.09059 10016 ft 277 kts 257°
2026-02-22 07:23 34.14320 135.06728 10016 ft 284 kts 281°
2026-02-22 07:23 34.15246 135.04591 10021 ft 295 kts 304°
2026-02-22 07:24 34.16703 135.02804 10020 ft 300 kts 310°
2026-02-22 07:24 34.18245 135.01096 10007 ft 302 kts 311°
2026-02-22 07:24 34.19758 134.99455 10009 ft 303 kts 311°
2026-02-22 07:24 34.21389 134.97830 9988 ft 309 kts 322°
2026-02-22 07:25 34.23399 134.96960 10000 ft 316 kts 346°
2026-02-22 07:25 34.25574 134.97126 10004 ft 313 kts
2026-02-22 07:25 34.27642 134.97824 9957 ft 304 kts 11°
2026-02-22 07:25 34.29643 134.98577 9746 ft 299 kts 12°
2026-02-22 07:26 34.31626 134.99332 9449 ft 298 kts 12°
2026-02-22 07:26 34.33602 135.00079 9148 ft 297 kts 12°
2026-02-22 07:26 34.35575 135.00815 8847 ft 296 kts 12°
2026-02-22 07:26 34.37543 135.01541 8600 ft 295 kts 12°
2026-02-22 07:27 34.39505 135.02264 8323 ft 294 kts 13°
2026-02-22 07:27 34.41387 135.03268 8069 ft 297 kts 25°
2026-02-22 07:27 34.42583 135.04080 8020 ft 295 kts 26°
2026-02-22 07:27 34.44882 135.05713 7979 ft 284 kts 26°
2026-02-22 07:28 34.46573 135.06907 7972 ft 280 kts 26°
2026-02-22 07:28 34.48270 135.08088 7983 ft 283 kts 26°
2026-02-22 07:28 34.50006 135.09281 7843 ft 290 kts 25°
2026-02-22 07:28 34.51771 135.10486 7690 ft 292 kts 26°
2026-02-22 07:29 34.53535 135.11688 7481 ft 290 kts 26°
2026-02-22 07:29 34.55300 135.12895 7173 ft 293 kts 27°
2026-02-22 07:29 34.56850 135.14513 6880 ft 297 kts 50°
2026-02-22 07:29 34.57698 135.15810 6745 ft 295 kts 51°
2026-02-22 07:30 34.58968 135.17741 6450 ft 291 kts 50°
2026-02-22 07:30 34.60407 135.20408 5953 ft 281 kts 76°
2026-02-22 07:30 34.60682 135.22692 5677 ft 268 kts 94°
2026-02-22 07:30 34.60646 135.24922 5376 ft 261 kts 97°
2026-02-22 07:31 34.60575 135.27080 5110 ft 250 kts 98°
2026-02-22 07:31 34.60517 135.29141 4850 ft 239 kts 98°
2026-02-22 07:31 34.60485 135.30459 4676 ft 233 kts 98°
2026-02-22 07:31 34.60443 135.32380 4415 ft 223 kts 99°
2026-02-22 07:32 34.60403 135.34231 4158 ft 215 kts 100°
2026-02-22 07:32 34.59979 135.36401 3819 ft 182 kts 140°
2026-02-22 07:32 34.59073 135.37258 3669 ft 155 kts 162°
2026-02-22 07:32 34.58426 135.37561 3543 ft 143 kts 173°
2026-02-22 07:33 34.57448 135.37631 3396 ft 141 kts 186°
2026-02-22 07:33 34.56472 135.37630 3204 ft 139 kts 182°
2026-02-22 07:33 34.55566 135.37382 3019 ft 132 kts 204°
2026-02-22 07:33 34.54739 135.36965 2852 ft 131 kts 199°
2026-02-22 07:34 34.53887 135.36569 2690 ft 132 kts 199°
2026-02-22 07:34 34.53030 135.36169 2511 ft 131 kts 199°
2026-02-22 07:34 34.52216 135.35790 2352 ft 122 kts 198°
2026-02-22 07:34 34.51430 135.35425 2219 ft 119 kts 197°
2026-02-22 07:35 34.50664 135.35070 2039 ft 115 kts 197°
2026-02-22 07:35 34.49931 135.34703 1859 ft 115 kts 205°
2026-02-22 07:35 34.49349 135.33993 1723 ft 121 kts 216°
2026-02-22 07:35 34.48724 135.33302 1550 ft 123 kts 217°
2026-02-22 07:36 34.48162 135.32527 1375 ft 125 kts 218°
2026-02-22 07:36 34.47594 135.31709 1217 ft 128 kts 223°
2026-02-22 07:36 34.47053 135.30875 1050 ft 125 kts 222°
2026-02-22 07:36 34.46513 135.30070 902 ft 121 kts 222°
2026-02-22 07:37 34.45982 135.29270 767 ft 122 kts 222°
2026-02-22 07:37 34.45433 135.28452 622 ft 132 kts 226°
2026-02-22 07:37 34.44865 135.27597 462 ft 129 kts 226°
2026-02-22 07:37 34.44301 135.26752 279 ft 130 kts 225°
2026-02-22 07:38 34.43728 135.25894 87 ft 131 kts 224°
2026-02-22 07:38 34.43178 135.25082 15 ft 114 kts 231°
2026-02-22 07:38 34.42776 135.24477 13 ft 71 kts 231°
2026-02-22 07:38 34.42560 135.24154 13 ft 33 kts 232°
2026-02-22 07:39 34.42474 135.23965 14 ft 12 kts 252°
2026-02-22 07:39 34.42458 135.23867 15 ft 13 kts 261°
2026-02-22 07:39 34.42448 135.23790 13 ft 5 kts 261°
2026-02-22 07:39 34.42447 135.23783 13 ft 0 kts 261°
2026-02-22 07:40 34.42446 135.23772 14 ft 3 kts 262°
2026-02-22 07:40 34.42451 135.23724 16 ft 8 kts 292°
2026-02-22 07:41 34.42500 135.23667 18 ft 13 kts 321°
2026-02-22 07:41 34.42587 135.23673 18 ft 14 kts 46°
2026-02-22 07:41 34.42649 135.23763 18 ft 14 kts 51°
2026-02-22 07:41 34.42707 135.23850 18 ft 13 kts 51°
2026-02-22 07:42 34.42763 135.23934 18 ft 13 kts 51°
2026-02-22 07:42 34.42871 135.24096 18 ft 12 kts 51°
2026-02-22 07:42 34.42923 135.24174 18 ft 12 kts 51°
2026-02-22 07:43 34.42973 135.24249 19 ft 11 kts 51°
2026-02-22 07:43 34.43022 135.24323 18 ft 11 kts 51°
2026-02-22 07:43 34.43070 135.24395 18 ft 11 kts 51°
2026-02-22 07:43 34.43130 135.24427 18 ft 8 kts 344°
2026-02-22 07:44 34.43159 135.24371 18 ft 8 kts 309°
2026-02-22 07:44 34.43201 135.24330 19 ft 7 kts 321°
2026-02-22 07:44 34.43219 135.24312 18 ft 0 kts 321°
2026-02-22 07:44 34.43224 135.24307 20 ft 3 kts 321°
2026-02-22 07:45 34.43226 135.24305 20 ft 0 kts 321°